Terug naar catalogus

BREEZE-M DEB

TANK

ActiefHEO
NORAD 37845·DEBRIS·🇷🇺 Russia

Gelanceerd Oct 19, 2011 vanaf Baikonur Cosmodrome

Loading…

Volgende Passages (komende 24 uur)

TLE

VersSource: Space-Track

Epoch: Sep 14, 2026, 02:29 UTC

1 37845U 11059C   26257.10383493  .00003759  00000-0  64914-3 0  9997
2 37845  49.7155 207.2280 4496527 316.7654  15.5995  6.46323986341740

Volg BREEZE-M DEB in realtime met AllMySat

Download on the App Store